TimeCDT,TemperatureF,Dew PointF,Humidity,Sea Level PressureIn,VisibilityMPH,Wind Direction,Wind SpeedMPH,Gust SpeedMPH,PrecipitationIn,Events,Conditions,WindDirDegrees,DateUTC
12:12 AM,43.7,38.3,81,29.93,10.0,Calm,Calm,-,N/A,,Clear,0,2012-10-02 05:12:00
12:32 AM,44.8,39.0,80,29.93,10.0,Calm,Calm,-,N/A,,Clear,0,2012-10-02 05:32:00
12:52 AM,44.1,39.2,83,29.94,10.0,Calm,Calm,-,N/A,,Clear,0,2012-10-02 05:52:00
1:12 AM,42.8,38.5,85,29.94,10.0,Calm,Calm,-,N/A,,Clear,0,2012-10-02 06:12:00
1:32 AM,42.8,38.3,84,29.94,10.0,Calm,Calm,-,N/A,,Clear,0,2012-10-02 06:32:00
1:52 AM,42.4,37.6,83,29.95,10.0,Calm,Calm,-,N/A,,Clear,0,2012-10-02 06:52:00
2:12 AM,40.3,36.1,85,29.95,10.0,Calm,Calm,-,N/A,,Clear,0,2012-10-02 07:12:00
2:32 AM,40.3,36.7,87,29.95,10.0,South,3.5,-,N/A,,Clear,170,2012-10-02 07:32:00
3:12 AM,39.2,35.2,86,29.94,10.0,Calm,Calm,-,N/A,,Clear,0,2012-10-02 08:12:00
3:32 AM,38.8,35.2,87,29.94,10.0,Calm,Calm,-,N/A,,Clear,0,2012-10-02 08:32:00
3:52 AM,39.4,35.4,86,29.94,10.0,SSW,3.5,-,N/A,,Clear,200,2012-10-02 08:52:00
3:54 AM,39.4,35.2,85,29.94,10.0,Calm,Calm,-,N/A,,Clear,0,2012-10-02 08:54:00
4:25 AM,37.4,33.8,87,29.94,10.0,SW,3.5,-,N/A,,Clear,220,2012-10-02 09:25:00
4:45 AM,37.4,33.8,87,29.94,10.0,SSW,3.5,-,N/A,,Clear,200,2012-10-02 09:45:00
5:25 AM,37.4,33.8,87,29.94,10.0,SSW,3.5,-,N/A,,Clear,210,2012-10-02 10:25:00
5:45 AM,37.4,33.8,87,29.95,10.0,Calm,Calm,-,N/A,,Clear,0,2012-10-02 10:45:00
6:05 AM,35.6,33.8,93,29.96,10.0,Calm,Calm,-,N/A,,Clear,0,2012-10-02 11:05:00
6:25 AM,37.4,33.8,87,29.95,10.0,Calm,Calm,-,N/A,,Clear,0,2012-10-02 11:25:00
6:45 AM,35.6,33.8,93,29.96,10.0,SSW,3.5,-,N/A,,Clear,200,2012-10-02 11:45:00
7:05 AM,35.6,32.0,87,29.97,10.0,Calm,Calm,-,N/A,,Clear,0,2012-10-02 12:05:00
7:25 AM,35.6,32.0,87,29.96,10.0,Calm,Calm,-,N/A,,Clear,0,2012-10-02 12:25:00
7:45 AM,35.6,33.8,93,29.96,10.0,Calm,Calm,-,N/A,,Clear,0,2012-10-02 12:45:00
8:11 AM,38.8,35.6,88,29.97,10.0,Calm,Calm,-,N/A,,Clear,0,2012-10-02 13:11:00
8:13 AM,39.0,35.8,88,29.97,10.0,Calm,Calm,-,N/A,,Clear,0,2012-10-02 13:13:00
8:32 AM,42.6,38.1,84,29.97,10.0,Calm,Calm,-,N/A,,Clear,0,2012-10-02 13:32:00
8:52 AM,45.1,39.6,81,29.97,10.0,Calm,Calm,-,N/A,,Clear,0,2012-10-02 13:52:00
9:12 AM,48.2,39.4,72,29.97,10.0,Calm,Calm,-,N/A,,Clear,0,2012-10-02 14:12:00
9:32 AM,51.1,40.8,68,29.97,10.0,Calm,Calm,-,N/A,,Clear,0,2012-10-02 14:32:00
9:52 AM,54.9,41.2,60,29.96,10.0,Calm,Calm,-,N/A,,Clear,0,2012-10-02 14:52:00
10:12 AM,58.5,43.0,56,29.96,10.0,Calm,Calm,-,N/A,,Clear,0,2012-10-02 15:12:00
10:32 AM,61.2,43.9,53,29.95,10.0,Calm,Calm,-,N/A,,Clear,0,2012-10-02 15:32:00
10:52 AM,64.4,43.7,47,29.94,10.0,ESE,4.6,-,N/A,,Clear,110,2012-10-02 15:52:00
11:12 AM,66.0,41.9,41,29.94,10.0,Calm,Calm,-,N/A,,Clear,0,2012-10-02 16:12:00
11:32 AM,66.0,39.6,38,29.94,10.0,SE,3.5,-,N/A,,Clear,130,2012-10-02 16:32:00
11:52 AM,67.5,39.9,37,29.93,10.0,ESE,5.8,-,N/A,,Clear,120,2012-10-02 16:52:00
12:12 PM,67.6,39.2,35,29.93,10.0,ESE,5.8,-,N/A,,Clear,110,2012-10-02 17:12:00
12:32 PM,67.8,37.9,33,29.93,10.0,SE,3.5,-,N/A,,Clear,140,2012-10-02 17:32:00
12:52 PM,68.4,37.4,32,29.92,10.0,Calm,Calm,-,N/A,,Clear,0,2012-10-02 17:52:00
1:12 PM,69.4,38.5,32,29.91,10.0,SSE,3.5,-,N/A,,Clear,150,2012-10-02 18:12:00
1:32 PM,69.6,36.3,29,29.90,10.0,Calm,Calm,-,N/A,,Clear,0,2012-10-02 18:32:00
1:52 PM,69.6,34.2,27,29.89,10.0,Calm,Calm,-,N/A,,Clear,0,2012-10-02 18:52:00
2:12 PM,70.3,35.2,28,29.88,10.0,West,3.5,-,N/A,,Clear,260,2012-10-02 19:12:00
2:32 PM,70.5,33.4,26,29.88,10.0,NW,4.6,-,N/A,,Clear,310,2012-10-02 19:32:00
2:52 PM,71.2,33.1,25,29.87,10.0,Calm,Calm,-,N/A,,Clear,0,2012-10-02 19:52:00
3:12 PM,72.0,33.8,25,29.86,10.0,SSE,5.8,-,N/A,,Clear,160,2012-10-02 20:12:00
3:32 PM,72.0,33.1,24,29.86,10.0,Calm,Calm,-,N/A,,Clear,0,2012-10-02 20:32:00
3:52 PM,72.5,33.1,24,29.86,10.0,South,4.6,-,N/A,,Clear,180,2012-10-02 20:52:00
4:12 PM,71.8,32.5,24,29.85,10.0,Calm,Calm,-,N/A,,Clear,0,2012-10-02 21:12:00
4:32 PM,72.5,33.1,24,29.85,10.0,SSE,4.6,-,N/A,,Clear,160,2012-10-02 21:32:00
4:52 PM,72.5,33.3,24,29.85,10.0,South,3.5,-,N/A,,Clear,190,2012-10-02 21:52:00
5:12 PM,71.8,33.1,24,29.84,10.0,SSE,3.5,-,N/A,,Clear,160,2012-10-02 22:12:00
5:32 PM,72.0,32.7,24,29.84,10.0,SSW,5.8,-,N/A,,Clear,200,2012-10-02 22:32:00
5:52 PM,70.9,32.0,24,29.85,10.0,South,4.6,-,N/A,,Clear,180,2012-10-02 22:52:00
6:12 PM,69.6,32.4,25,29.85,10.0,South,3.5,-,N/A,,Clear,190,2012-10-02 23:12:00
6:32 PM,67.8,32.5,27,29.85,10.0,SSE,3.5,-,N/A,,Clear,150,2012-10-02 23:32:00
7:12 PM,61.5,36.1,39,29.85,10.0,SSE,3.5,-,N/A,,Clear,150,2012-10-03 00:12:00
7:31 PM,58.5,37.0,45,29.85,3.0,SSE,3.5,-,N/A,,Haze,160,2012-10-03 00:31:00
8:12 PM,53.6,37.0,53,29.86,4.0,Calm,Calm,-,N/A,,Haze,0,2012-10-03 01:12:00
8:32 PM,52.3,37.0,56,29.86,4.0,Calm,Calm,-,N/A,,Haze,0,2012-10-03 01:32:00
8:52 PM,50.9,36.5,58,29.86,4.0,SW,3.5,-,N/A,,Haze,220,2012-10-03 01:52:00
9:12 PM,50.0,35.4,57,29.86,3.0,Calm,Calm,-,N/A,,Haze,0,2012-10-03 02:12:00
9:32 PM,51.4,36.9,58,29.87,5.0,Calm,Calm,-,N/A,,Haze,0,2012-10-03 02:32:00
9:52 PM,48.0,36.1,63,29.88,7.0,Calm,Calm,-,N/A,,Clear,0,2012-10-03 02:52:00
10:12 PM,48.9,36.3,62,29.88,5.0,Calm,Calm,-,N/A,,Haze,0,2012-10-03 03:12:00
10:32 PM,49.1,37.4,64,29.88,7.0,Calm,Calm,-,N/A,,Clear,0,2012-10-03 03:32:00
10:52 PM,49.1,37.0,63,29.88,7.0,SSW,3.5,-,N/A,,Clear,210,2012-10-03 03:52:00
11:12 PM,47.3,37.2,68,29.86,5.0,South,3.5,-,N/A,,Haze,170,2012-10-03 04:12:00
11:32 PM,48.6,37.9,67,29.87,7.0,SW,3.5,-,N/A,,Clear,220,2012-10-03 04:32:00
11:52 PM,48.4,38.5,69,29.88,10.0,WSW,3.5,-,N/A,,Clear,250,2012-10-03 04:52:00